DELTA 1 DEB

Satellite information

Favourite Embed

Satellite Type and Status

DEBRISIN ORBIT

Key statistics

Satellite DELTA 1 DEB at a glance.

Uptime

19406

Days in orbit

Revolutions

≈ 13.5

Per day

Orbit

SSO

Sun Synchronous Orbit

Inclination

98.6

Latest

Satellite identification and parameters

Extended collection of information and parameters for DELTA 1 DEB.

Object identification

Identified? True

Debris? True

Object name: DELTA 1 DEB

International designator: 1972-058DK

Object number (NORAD): 8084

Object ID (CCSDS): 8084

Country: UNITED STATES OF AMERICA (US)

Current information (Y/N): Y

RCS size: SMALL

Orbital parameters

Period: 106.461 minutes

Inclination: 98.6443 deg

SMA: 7440.808 km

Apoapsis: 1463.866 km

Periapsis: 661.48 km

RAAN: 3.3456 deg

Eccentricy: 0.05391799

Argument of periapsis: 8.6189 deg

Mean anomaly: 352.3771 deg

Mean motion: 13.52610063 rev/day

Mean motion (dot): 0.00000608 rev/day2

B* drag term: 0.00038641242 1/REarth

Two-line elements (TLE)

Creation date: Sept. 8, 2025, 6:18 p.m.

Reference frame: TEME

Reference center: EARTH

Epoch: Sept. 8, 2025, 7:14 a.m. UTC

TLE line 0: 0 DELTA 1 DEB

TLE line 1: 1 08084U 72058DK 25251.30177127 .00000608 00000-0 38641-3 0 9994

TLE line 2: 2 08084 98.6443 3.3456 0539180 8.6189 352.3771 13.52610063583567

Live tracking on map

Real-time ground track for satellite DELTA 1 DEB.

In-orbit conjunctions

A list of the most updated potential collisions computed for object DELTA 1 DEB.

Target Orbit TCA Probability of collision Miss distance Type
DELTA 1 DEB SSO 2025-01-10 19:11:50 0.0001027078 169.0 (m) DEBRIS

Associated space launch

Earth observation satellite

DELTA 1 DEB was lifted into orbit during the mission ‘Delta 0900 | Landsat 1’, on board a Delta 0900 space rocket.

The launch took place on July 23, 1972, 6:06 p.m. from Space Launch Complex 2W.

For more information about the launch, click the button.

Launch to space Delta 0900 | Landsat 1
Delta 0900 | Landsat 1

Agency: N/A

Status: Launch Successful

Launch date: July 23, 1972, 6:06 p.m. UTC

Rocket: Delta 0900

Launch pad: Space Launch Complex 2W

Location: Vandenberg SFB, CA, USA

...

Latest news about this satellite

There are no fresh news available about this satellite. Check back as we update our databases every day.


Newsletter sign-up

Weekly statistics, charts and insights to help you stay on top of the space industry.